Location: Asheville, NC
(35.6000°N, 82.5500°W)
Time: 03:12:44

Vanguard 1 Rocket - Pass Details

Date: 08 December 2017
Orbit: 655 x 4222 km, 34.3° (Epoch: 20 March)

Event Time Altitude Azimuth Distance (km) Brightness Sun altitude
Rises 23:17:17 0° 283° (WNW) 6,834 12.1 -70.9°
Reaches altitude 10° 23:21:11 10° 282° (WNW) 6,176 11.7 -71.6°
Enters shadow 23:29:25 34° 275° (W) 5,039 11.0 -72.8°
Maximum altitude 23:43:19 70° 204° (SSW) 4,327 - -74.7°
Drops below altitude 10° 00:08:24 10° 127° (SE) 6,834 - -76.9°
Exits shadow 00:12:14 - 125° (SE) 7,421 11.9 -77.0°
Sets 00:13:02 0° 125° (SE) 7,548 12.0 -77.1°
